sat.trackr.live / text

‹ back to catalog

STARLINK-35931

NORAD 66519 · 2025-265D

PAYLOAD ACTIVE UNKNOWN

§ Identity

Operator
Country
US
Launch date
2025-11-19
Launch site
AFETR
Launch vehicle
Mass (kg)
RCS (m²)

Purposes: comms

External: N2YO · Heavens-Above · Gunter

§ Orbital elements

Epoch: 2026-09-20T16:17:55.487616Z

Period
94.27 min
Inclination
42.9989°
Eccentricity
0.0001182
Mean motion
15.27572223 rev/d
Perigee alt
482.3 km
Apogee alt
483.9 km
Semi-major
6,861.2 km
B*
3.3984e-4
RAAN
256.8141°
Arg perigee
273.2766°
Mean anomaly
86.7950°
Rev number
4,693

§ Raw data

STARLINK-359311 66519U 25265D   26263.67911444  .00009099  00000+0  33984-3 0  99982 66519  42.9989 256.8141 0001182 273.2766  86.7950 15.27572223 46935

JSON: /api/v1/satellites/66519 · /tle

For live sub-satellite position, see the globe view (requires WebGL).

§ Visibility from observer

Set your observer location to see the next 7 days of passes ≥ 10°. The values pass through the URL so the page stays shareable.

No JS? Fill the form by hand. The geolocation button needs JavaScript.